This demonstration page uses our WeatherBlox Daily Observations layout. Learn more.

Left ArrowRight Arrow

Hourly Observations for August 23, 2021

Temp ( °F °C ) Dew Point ( °F °C ) Humidity (%) Winds ( mph kmh ) Pressure ( in mb ) Visibility ( mi km ) Precip ( " mm )
12:53 am 00:53 Clear with Smoke 69 20.6 50 10 51 51 N 3 6 29.75 1008 8 13 0.00 0.00
1:53 am 01:53 Clear with Smoke 65 18.3 50 10 59 59 Calm 29.75 1008 8 13 0.00 0.00
2:53 am 02:53 Clear with Smoke 64 17.8 50 10 60 60 Calm 29.76 1008 8 13 0.00 0.00
3:53 am 03:53 Clear with Smoke 62 16.7 50 10 65 65 Calm 29.76 1008 8 13 0.00 0.00
4:53 am 04:53 Clear with Smoke 62 16.7 49 9.4 62 62 Calm 29.77 1008 8 13 0.00 0.00
5:53 am 05:53 Clear with Smoke 60 15.6 47 8.3 62 62 Calm 29.77 1008 8 13 0.00 0.00
6:53 am 06:53 Sunny with Smoke 60 15.6 48 8.9 65 65 Calm 29.79 1009 7 11 0.00 0.00
7:53 am 07:53 Hazy 63 17.2 48 8.9 58 58 Calm 29.80 1009 6 10 0.00 0.00
8:53 am 08:53 Sunny with Smoke 70 21.1 47 8.3 44 44 Calm 29.80 1009 7 11 0.00 0.00
12:53 pm 12:53 Sunny 87 30.6 45 7.2 23 23 S 6 9 29.77 1008 8 13 0.00 0.00
1:53 pm 13:53 Sunny 88 31.1 45 7.2 22 22 VRB 7 11 29.75 1008 8 13 0.00 0.00
2:53 pm 14:53 Sunny 90 32.2 43 6.1 19 19 VRB 7 11 29.74 1007 7 11 0.00 0.00
3:53 pm 15:53 Sunny 91 32.8 38 3.3 15 15 S 8 13 29.72 1007 7 11 0.00 0.00
4:53 pm 16:53 Hazy 91 32.8 38 3.3 15 15 SSE 9 15 29.71 1006 6 10 0.00 0.00
5:53 pm 17:53 Sunny 90 32.2 35 1.7 14 14 SSE 13 20 29.70 1006 8 13 0.00 0.00
6:53 pm 18:53 Sunny 88 31.1 34 1.1 15 15 S 12 19 29.71 1006 10 16 0.00 0.00
7:53 pm 19:53 Sunny 82 27.8 40 4.4 22 22 SSE 6 9 29.72 1007 8 13 0.00 0.00
8:53 pm 20:53 Clear 77 25 40 4.4 26 26 ESE 7 11 29.75 1008 9 14 0.00 0.00
9:53 pm 21:53 Clear 75 23.9 41 5 29 29 Calm 29.77 1008 9 14 0.00 0.00
10:53 pm 22:53 Clear 70 21.1 46 7.8 42 42 Calm 29.78 1009 8 13 0.00 0.00
11:53 pm 23:53 Clear 69 20.6 44 6.7 41 41 N 3 6 29.80 1009 9 14 0.00 0.00

Powered by AerisWeather